Location: Unspecified
(0.0000°N, 0.0000°E)
Time: 00:59:40
(UTC+00:00)

Vanguard 2 - Pass Details

Date: 16 December 2018
Orbit: 553 x 2939 km, 32.9° (Epoch: 16 January)

Event Time Altitude Azimuth Distance (km) Brightness Sun altitude
Rises 08:43:44 0° 241° (WSW) 6,766 12.1 38.0°
Reaches altitude 10° 08:53:06 10° 216° (SW) 5,474 11.9 40.0°
Maximum altitude 08:58:55 13° 194° (SSW) 4,946 12.0 41.2°
Drops below altitude 10° 09:04:08 10° 172° (S) 4,803 12.2 42.3°
Sets 09:10:56 0° 144° (SE) 5,216 12.5 43.7°
